Location: Armstrong Village
(14.3346°N, 120.9854°E)
Time: 05:03:47
(UTC+00:00)

Cosmos 1470 Rocket - Visible Passes

Search period start: 19 April 2026 00:00
Search period end: 29 April 2026 00:00
Orbit: 596 x 627 km, 82.5° (Epoch: 18 April)

Date Brightness Start Highest point End Pass type
(mag) Time Alt. Az. Time Alt. Az. Time Alt. Az.
20 Apr 5.2 10:37:55 10° SSW 10:42:01 39° W 10:46:05 10° NNW visible
20 Apr 6.9 21:01:35 10° NE 21:04:00 15° E 21:06:25 10° ESE visible
21 Apr 6.6 10:53:46 10° SW 10:56:56 19° W 11:00:05 10° NW visible
21 Apr 5.9 21:15:10 10° NNE 21:18:55 30° E 21:22:42 10° SE visible
24 Apr 7.0 20:24:29 10° ENE 20:25:58 12° E 20:27:27 10° ESE visible
25 Apr 6.1 20:37:26 10° NNE 20:40:54 24° E 20:44:23 10° SE visible
26 Apr 7.2 10:32:13 10° WSW 10:33:51 12° W 10:35:29 10° WNW visible
26 Apr 4.6 20:51:38 10° N 20:55:48 49° E 21:00:00 10° SSE visible
27 Apr 3.5 21:06:23 10° N 21:10:40 75° W 21:14:59 10° S visible
